[[{"header":{"parameterUnit":"m.s-1","parameterCategory":1,"la1":30.2991,"la2":30.254,"lo1":-89.0895,"lo2":-89.0444,"dy":0.0017,"dx":0.0017,"nx":28,"ny":28,"refTime":"2024-08-28T03:00:00:Z","depth":0,"parameterNumber":2,"parameterNumberName":"U-component_of_WINDS"},"data":[0,0,0,0,0,0,0,0,0,0,0,0,0,0,0,0,0,0,0,0,0,0,0,0,0,0,0,0,0,0,0,0,0,0,0,0,0,0,0,0,0,0,0,0,0,0,0,0,0,0,0,0,0,0,0,0,0,0,-3.5998,-3.5998,0,-3.6012,-3.6012,-3.6012,-3.5907,-3.5904,-3.5901,-3.5899,-3.591,-3.5913,-3.5916,0,0,0,0,0,0,0,0,0,0,0,0,0,-3.5877,-3.588,-3.5998,-3.5998,-3.5998,-3.6012,-3.6012,-3.6012,-3.5908,-3.5904,-3.5901,-3.5897,-3.5909,-3.5913,-3.5916,0,0,0,0,0,0,0,0,0,0,0,0,0,-3.5914,-3.5881,-3.5998,-3.5948,-3.5943,-3.6012,-3.6012,-3.6012,-3.5909,-3.5904,-3.59,-3.5896,-3.5908,-3.5912,-3.5917,-3.6033,0,0,-3.5931,-3.5933,0,0,0,0,0,0,0,0,-3.5912,-3.5919,-3.5955,-3.5951,-3.5947,-3.5953,-3.5974,-3.6019,-3.591,-3.5922,-3.5899,-3.5894,-3.5928,-3.593,-3.5943,-3.6033,-3.6034,-3.5931,-3.5934,-3.5936,-3.5937,0,0,0,0,0,0,0,-3.591,-3.5918,-3.6003,-3.5956,-3.595,-3.5924,-3.5924,-3.5982,-3.5949,-3.592,-3.5913,-3.5916,-3.5925,-3.5939,-3.5942,-3.6034,-3.5931,-3.5935,-3.5938,-3.594,-3.622,-3.6225,0,0,0,0,0,0,-3.5914,-3.5916,-3.6003,-3.6004,-3.5918,-3.5929,-3.593,-3.5956,-3.5948,-3.5943,-3.592,-3.5911,-3.5933,-3.5937,-3.5942,-3.6077,-3.5936,-3.594,-3.5943,-3.6216,-3.6222,-3.6227,0,0,0,0,0,0,-3.5912,-3.5923,-3.6002,-3.5958,-3.5966,-3.5936,-3.5966,-3.5958,-3.5972,-3.5948,-3.5941,-3.594,-3.593,-3.5936,-3.6011,-3.6076,-3.5942,-3.5946,-3.621,-3.6218,-3.6224,-3.6348,0,0,0,0,0,0,-3.5909,-3.5923,-3.5967,-3.596,-3.5969,-3.6072,-3.597,-3.5962,-3.598,-3.5969,-3.5965,-3.596,-3.5927,-3.6005,-3.6016,-3.608,-3.595,-3.6204,-3.6213,-3.6222,-3.6338,-3.6358,-3.6376,0,0,0,0,0,-3.5905,-3.6001,-3.597,-3.5981,-3.6024,-3.6076,-3.6081,-3.6041,-3.5986,-3.603,-3.6015,-3.596,-3.6068,-3.6014,-3.6025,-3.6091,-3.62,-3.6211,-3.6221,-3.6329,-3.6354,-3.6375,0,0,0,0,0,0,-3.6015,-3.5999,-3.5964,-3.6061,-3.6071,-3.6058,-3.6112,-3.6069,-3.6094,-3.6082,-3.6031,-3.6031,-3.6115,-3.6111,-3.6051,-3.6203,-3.6124,-3.6137,-3.6202,-3.6226,-3.6244,-3.6243,-3.5954,0,0,0,0,0,-3.6051,-3.6096,-3.6079,-3.6165,-3.6172,-3.6142,-3.6163,-3.6132,-3.614,-3.6143,-3.6133,-3.6142,-3.6177,-3.6202,-3.6233,-3.6338,-3.6334,-3.6389,-3.6408,-3.6423,-3.6435,-3.6489,-3.6513,-3.6262,-3.6262,-3.6261,0,0,-3.6124,-3.6121,-3.6152,-3.6187,-3.6191,-3.6238,-3.6146,-3.6199,-3.6233,-3.6151,-3.6221,-3.6215,-3.6221,-3.6312,-3.6351,-3.6311,-3.6504,-3.6437,-3.645,-3.6452,-3.6503,-3.6526,-3.6547,-3.6269,-3.6268,-3.6266,0,0,-3.6281,-3.6285,-3.6356,-3.6363,-3.6371,-3.6351,-3.6368,-3.6363,-3.6356,-3.6426,-3.6366,-3.6405,-3.6468,-3.6474,-3.6486,-3.6649,-3.6599,-3.6661,-3.6759,-3.6813,-3.6832,-3.6849,-3.6906,-3.6927,-3.6673,-3.6673,-3.6673,0,-3.6371,-3.644,-3.6399,-3.6456,-3.6473,-3.6403,-3.6475,-3.6483,-3.6501,-3.6514,-3.6469,-3.6546,-3.6546,-3.6637,-3.6677,-3.6689,-3.6706,-3.666,-3.6833,-3.685,-3.6865,-3.6919,-3.694,-3.668,-3.6679,-3.6679,-3.6678,0,-3.6549,-3.6598,-3.6655,-3.6676,-3.6699,-3.6764,-3.6732,-3.676,-3.6728,-3.6712,-3.6785,-3.6782,-3.6812,-3.6832,-3.68,-3.6919,-3.6893,-3.6842,-3.6761,-3.6897,-3.6946,-3.6967,-3.6691,-3.6688,-3.6686,-3.6684,0,0,-3.6773,-3.6772,-3.6793,-3.6802,-3.6806,-3.6843,-3.6905,-3.6935,-3.696,-3.6975,-3.7025,-3.708,-3.7033,-3.7047,-3.7016,-3.7063,-3.7191,-3.7006,-3.7005,-3.7039,-3.732,-3.7357,-3.7381,-3.7159,-3.7163,-3.7166,-3.7319,0,-3.6925,-3.7031,-3.6997,-3.7103,-3.7148,-3.7083,-3.7136,-3.7145,-3.7133,-3.7167,-3.7153,-3.7193,-3.7128,-3.7136,-3.718,-3.7166,-3.7246,-3.7155,-3.7203,-3.7205,-3.7201,-3.7407,-3.7447,-3.7591,-3.7338,-3.7341,-3.7344,0,-3.7116,-3.7141,-3.7253,-3.7251,-3.7268,-3.7317,-3.7342,-3.7377,-3.7385,-3.7373,-3.7389,-3.7349,-3.7408,-3.733,-3.741,-3.7349,-3.7367,-3.7363,-3.7368,-3.7369,-3.7281,-3.7412,-3.7636,-3.7657,-3.7374,-3.7371,-3.7369,0,-3.7267,-3.7328,-3.7402,-3.7412,-3.7412,-3.7447,-3.7449,-3.7453,-3.7474,-3.7496,-3.7509,-3.7538,-3.7553,-3.7576,-3.7543,-3.7489,-3.7629,-3.7547,-3.7618,-3.7619,-3.7648,-3.7646,-3.7876,-3.7664,-3.7664,-3.7663,-3.7663,0,-3.7439,-3.7509,-3.747,-3.7515,-3.7592,-3.7552,-3.7629,-3.7623,-3.7628,-3.7671,-3.7617,-3.7658,-3.7614,-3.7651,-3.7627,-3.7696,-3.7704,-3.7695,-3.7687,-3.7698,-3.7699,-3.7708,-3.7696,-3.7669,-3.7668,-3.7667,-3.7666,0,-3.7618,-3.7595,-3.7672,-3.7667,-3.7667,-3.7724,-3.7718,-3.776,-3.7745,-3.78,-3.781,-3.7786,-3.7826,-3.7797,-3.7838,-3.7821,-3.7913,-3.7892,-3.791,-3.7904,-3.7976,-3.7969,-3.8217,-3.8247,-3.8018,-3.802,-3.8022,0,-3.7729,-3.7782,-3.7783,-3.7808,-3.7814,-3.7855,-3.7877,-3.784,-3.7864,-3.7879,-3.7918,-3.7955,-3.7982,-3.805,-3.8035,-3.8066,-3.8044,-3.8129,-3.8048,-3.8058,-3.8043,-3.804,-3.8044,-3.8144,-3.8147,-3.8149,-3.8151,0,-3.7926,-3.7913,-3.7946,-3.7977,-3.8004,-3.8026,-3.8043,-3.8067,-3.803,-3.806,-3.8101,-3.8123,-3.8165,-3.8201,-3.8227,-3.8227,-3.8183,-3.8177,-3.8195,-3.8206,-3.8214,-3.8209,-3.7953,-3.8171,-3.8169,-3.8168,-3.8166,-3.8166,-3.8073,-3.8117,-3.8125,-3.8165,-3.8174,-3.8192,-3.8231,-3.8222,-3.8256,-3.8288,-3.8265,-3.8314,-3.8321,-3.8351,-3.8358,-3.8395,-3.836,-3.8386,-3.8392,-3.8399,-3.8408,-3.821,-3.84,-3.8399,-3.8399,-3.8398,-3.8398,0,-3.8267,-3.8269,-3.8306,-3.8333,-3.8364,-3.8323,-3.834,-3.8368,-3.8413,-3.8424,-3.8452,-3.8501,-3.8536,-3.8526,-3.8557,-3.8589,-3.857,-3.8599,-3.8595,-3.8595,-3.8439,-3.8419,-3.8614,-3.8614,-3.8614,-3.8614,-3.8614,-3.8614,-3.8371,-3.8443,-3.8431,-3.8507,-3.8509,-3.8558,-3.8571,-3.8587,-3.8596,-3.8653,-3.8683,-3.8676,-3.8679,-3.871,-3.8741,-3.8737,-3.875,-3.8786,-3.8775,-3.8628,-3.8606,-3.8586,-3.8567,-3.879,-3.879,-3.8928,-3.8929,-3.893]},{"header":{"parameterUnit":"m.s-1","parameterCategory":1,"la1":30.2991,"la2":30.254,"lo1":-89.0895,"lo2":-89.0444,"dy":0.0017,"dx":0.0017,"nx":28,"ny":28,"refTime":"2024-08-28T03:00:00:Z","depth":0,"parameterNumber":3,"parameterNumberName":"V-component_of_WINDS"},"data":[0,0,0,0,0,0,0,0,0,0,0,0,0,0,0,0,0,0,0,0,0,0,0,0,0,0,0,0,0,0,0,0,0,0,0,0,0,0,0,0,0,0,0,0,0,0,0,0,0,0,0,0,0,0,0,0,0,0,-0.1952,-0.195,0,-0.1791,-0.1789,-0.1788,-0.1706,-0.1706,-0.1706,-0.1706,-0.1535,-0.1531,-0.1527,0,0,0,0,0,0,0,0,0,0,0,0,0,-0.218,-0.2176,-0.1952,-0.195,-0.1948,-0.1791,-0.1789,-0.1787,-0.1706,-0.1706,-0.1706,-0.1706,-0.1537,-0.1532,-0.1526,0,0,0,0,0,0,0,0,0,0,0,0,0,-0.2056,-0.2175,-0.1952,-0.1889,-0.1881,-0.1792,-0.1789,-0.1786,-0.1706,-0.1706,-0.1706,-0.1706,-0.1539,-0.1532,-0.1525,-0.1485,0,0,-0.1505,-0.1502,0,0,0,0,0,0,0,0,-0.2063,-0.2048,-0.19,-0.1893,-0.1885,-0.1769,-0.1807,-0.1685,-0.1706,-0.1772,-0.1706,-0.1706,-0.1613,-0.16,-0.157,-0.1477,-0.147,-0.1504,-0.15,-0.1497,-0.1495,0,0,0,0,0,0,0,-0.2072,-0.2054,-0.1888,-0.1898,-0.1889,-0.1865,-0.1848,-0.1784,-0.1695,-0.1767,-0.176,-0.1743,-0.1608,-0.1576,-0.1565,-0.1467,-0.1504,-0.1498,-0.1494,-0.1492,-0.1329,-0.1328,0,0,0,0,0,0,-0.2092,-0.2062,-0.1893,-0.1883,-0.1976,-0.1861,-0.1842,-0.1806,-0.1695,-0.1678,-0.1743,-0.1739,-0.1588,-0.1573,-0.1559,-0.1502,-0.1497,-0.1491,-0.1487,-0.1329,-0.1329,-0.1328,0,0,0,0,0,0,-0.2097,-0.2078,-0.19,-0.1971,-0.1947,-0.1858,-0.1818,-0.1803,-0.1771,-0.1677,-0.166,-0.1727,-0.1587,-0.1568,-0.1503,-0.1495,-0.1488,-0.1482,-0.1329,-0.1329,-0.1328,-0.139,0,0,0,0,0,0,-0.2104,-0.208,-0.2066,-0.1971,-0.1943,-0.185,-0.1817,-0.18,-0.176,-0.1754,-0.1658,-0.1642,-0.1586,-0.1514,-0.1497,-0.1486,-0.1477,-0.133,-0.1329,-0.1329,-0.1388,-0.1392,-0.1395,0,0,0,0,0,-0.2113,-0.209,-0.2066,-0.2046,-0.1924,-0.185,-0.1834,-0.1771,-0.176,-0.1743,-0.1682,-0.1645,-0.1498,-0.1508,-0.1488,-0.1475,-0.133,-0.1329,-0.1329,-0.1387,-0.1391,-0.1395,0,0,0,0,0,0,-0.2185,-0.2076,-0.2049,-0.1995,-0.1933,-0.1837,-0.1815,-0.1778,-0.1716,-0.1713,-0.1635,-0.1614,-0.1556,-0.1508,-0.1521,-0.1427,-0.141,-0.1405,-0.1461,-0.1464,-0.1467,-0.148,-0.1471,0,0,0,0,0,-0.2195,-0.2146,-0.2053,-0.2014,-0.1984,-0.1905,-0.187,-0.1827,-0.1758,-0.1731,-0.1665,-0.1598,-0.1536,-0.1497,-0.1436,-0.138,-0.1356,-0.136,-0.1364,-0.1367,-0.1364,-0.1327,-0.1327,-0.1326,-0.1326,-0.1326,0,0,-0.2215,-0.2149,-0.2123,-0.2027,-0.1973,-0.1921,-0.1883,-0.1831,-0.179,-0.1722,-0.1657,-0.1606,-0.1526,-0.1465,-0.1434,-0.1423,-0.1358,-0.1366,-0.1369,-0.1364,-0.1326,-0.1327,-0.1327,-0.1326,-0.1326,-0.1326,0,0,-0.2225,-0.2171,-0.2132,-0.2079,-0.1998,-0.1945,-0.1935,-0.1843,-0.1807,-0.1741,-0.1688,-0.1637,-0.1533,-0.1477,-0.1435,-0.1418,-0.138,-0.14,-0.1417,-0.1382,-0.1382,-0.1382,-0.1374,-0.1372,-0.1397,-0.1397,-0.1397,0,-0.2259,-0.2182,-0.2116,-0.2066,-0.2024,-0.1959,-0.1917,-0.1867,-0.177,-0.1741,-0.173,-0.1596,-0.1537,-0.1461,-0.1457,-0.1425,-0.1409,-0.1411,-0.1388,-0.1387,-0.1385,-0.1377,-0.1374,-0.14,-0.14,-0.1399,-0.1399,0,-0.2227,-0.2173,-0.2151,-0.2059,-0.2014,-0.1968,-0.1892,-0.1854,-0.1813,-0.176,-0.169,-0.1617,-0.1538,-0.1516,-0.1476,-0.1432,-0.1428,-0.1403,-0.1384,-0.139,-0.138,-0.1377,-0.1404,-0.1403,-0.1402,-0.1402,0,0,-0.2281,-0.2152,-0.2144,-0.2101,-0.2005,-0.1961,-0.1909,-0.1833,-0.1801,-0.1734,-0.1687,-0.1599,-0.1575,-0.1527,-0.1479,-0.1448,-0.1437,-0.1427,-0.1423,-0.143,-0.138,-0.14,-0.1397,-0.141,-0.1409,-0.1409,-0.1387,0,-0.2276,-0.2185,-0.2123,-0.2054,-0.2002,-0.1938,-0.1893,-0.1827,-0.1775,-0.172,-0.1661,-0.1599,-0.1573,-0.1543,-0.151,-0.1446,-0.1426,-0.1446,-0.1363,-0.1361,-0.1386,-0.1393,-0.1414,-0.1397,-0.1383,-0.1382,-0.1382,0,-0.2261,-0.2197,-0.2124,-0.2031,-0.2006,-0.1968,-0.1891,-0.184,-0.1762,-0.1726,-0.1671,-0.1621,-0.156,-0.1546,-0.1459,-0.1474,-0.1436,-0.1398,-0.1396,-0.1386,-0.1373,-0.1382,-0.139,-0.1388,-0.1376,-0.1376,-0.1377,0,-0.2306,-0.2201,-0.2144,-0.2108,-0.1998,-0.1972,-0.1924,-0.1847,-0.1804,-0.1735,-0.1705,-0.163,-0.1589,-0.153,-0.1459,-0.1456,-0.1379,-0.1359,-0.1344,-0.1346,-0.1332,-0.1334,-0.1334,-0.1308,-0.1308,-0.1308,-0.1308,0,-0.2308,-0.2265,-0.2162,-0.2127,-0.2076,-0.2001,-0.1952,-0.1898,-0.1829,-0.1779,-0.1718,-0.1672,-0.1582,-0.1524,-0.1468,-0.1403,-0.1384,-0.1351,-0.1337,-0.1357,-0.1361,-0.1331,-0.133,-0.1307,-0.1307,-0.1307,-0.1308,0,-0.2351,-0.228,-0.2213,-0.2114,-0.2087,-0.2054,-0.1967,-0.1928,-0.1871,-0.1809,-0.1789,-0.1699,-0.1627,-0.155,-0.1452,-0.1414,-0.1351,-0.1331,-0.1378,-0.137,-0.1359,-0.1361,-0.134,-0.1332,-0.1313,-0.1313,-0.1313,0,-0.2357,-0.2323,-0.222,-0.2183,-0.2137,-0.2079,-0.2034,-0.1958,-0.1913,-0.182,-0.1791,-0.1715,-0.165,-0.1536,-0.146,-0.1383,-0.136,-0.1357,-0.1348,-0.1368,-0.1358,-0.1361,-0.1356,-0.1361,-0.1362,-0.1362,-0.1363,0,-0.2375,-0.2341,-0.2281,-0.2207,-0.2156,-0.2093,-0.2028,-0.2001,-0.1911,-0.1863,-0.1789,-0.1739,-0.1637,-0.1561,-0.1474,-0.1421,-0.1376,-0.1366,-0.1358,-0.1379,-0.1407,-0.139,-0.1386,-0.1367,-0.1367,-0.1367,-0.1366,-0.1366,-0.2399,-0.2365,-0.2286,-0.2219,-0.2162,-0.2102,-0.206,-0.1997,-0.1935,-0.1848,-0.1805,-0.1731,-0.1649,-0.1528,-0.1475,-0.1413,-0.14,-0.139,-0.1387,-0.1385,-0.139,-0.1417,-0.1397,-0.1397,-0.1397,-0.1396,-0.1396,0,-0.2413,-0.2359,-0.2298,-0.2209,-0.2156,-0.2119,-0.2044,-0.2001,-0.1937,-0.1865,-0.1802,-0.1715,-0.1639,-0.1555,-0.1473,-0.144,-0.1416,-0.142,-0.1422,-0.141,-0.1407,-0.1421,-0.144,-0.144,-0.144,-0.144,-0.144,-0.144,-0.2414,-0.2353,-0.2309,-0.2217,-0.2162,-0.209,-0.205,-0.1993,-0.1935,-0.1841,-0.1779,-0.1725,-0.1647,-0.1558,-0.1485,-0.1462,-0.1434,-0.1444,-0.1415,-0.1414,-0.1411,-0.1408,-0.1421,-0.1439,-0.1439,-0.1423,-0.1423,-0.1423]}]]